Tracking 34094 objects as of 11-May-2026
HD Live streaming from Space Station
objects crossing your sky now

STARLINK-35593

Track STARLINK-35593 now!
10-day predictions
STARLINK-35593 is classified as:


NORAD ID: 66107
Int'l Code: 2025-236X
Perigee: 481.6 km
Apogee: 483.1 km
Inclination: 53.2 °
Period: 94.1 minutes
Semi major axis: 6853 km
RCS: Unknown
Launch date: October 19, 2025
Source: United States (US)
Launch site: AIR FORCE WESTERN TEST RANGE (AFWTR)
Your satellite tracking list
Your tracking list is empty




NASA's NSSDC Master Catalog

Two Line Element Set (TLE):
1 66107U 25236X   26130.40541657  .00007399  00000-0  26167-3 0  9995
2 66107  53.1583 177.1984 0001148  79.1450 280.9680 15.30200455 32399
Source of the keplerian elements: AFSPC